Walvis Bay Airport

Jump to: basic info | weather | frequencies | runways | comments

Related pages: nearby airports | nearby navaids | notams | map

Basic information (top)

Codes: WVB FYWB
Location: lon -22.979900, lat 14.645300, elev 299 ft / 91 m msl
Status: medium_airport
Scheduled airline service: no
Links: Wikipedia Mobile

Weather (top)

Current conditions (rec'd 2015/03/05 07:00Z):

FYWB 050700Z 03004KT 2000 BCFG OVC005 15/14 Q1013 REFG

Airport forecast (rec'd 2015/03/01 00:00Z):

TAF FYWB 012200Z 0200/0306 32007KT 9999 SCT020 
      TEMPO 0201/0204 04005KT 0700 FG OVC007 
      BECMG 0204/0206 9999 BKN010 
      BECMG 0206/0208 30005KT SCT025 
      BECMG 0210/0212 24012KT CAVOK 
      TEMPO 0300/0303 03004KT 0800 FG OVC010 

Frequencies (top)

Verify before use: may be inaccurate or out of date.

APP: 122.5 MHz (APP)
TWR: 122.5 MHz (TWR)

Runways (top)

09/27: 7,001 x 98 ft (2,134 x 30 m) — paved — lighted

Latest comments (top)

No comments yet for Walvis Bay Airport

More... (top)

See also NOTAMs and nearby airports and navaids, or visit the Walvis Bay Airport page at the main OurAirports website..